Flag for U.S.A. Weather past 2 weeks in Barrow, Alaska, U.S.A.

Now
-3 °F

Partly sunny.


Feels Like: -20 °F
Forecast: -7 / -3 °F
Wind: 10 mph from South

Location: Post Rogers Memorial Airport

Current Time: Dec 22, 2014 at 3:33:25 PM

Latest Report: Dec 22, 2014 at 2:53 PM


Visibility: 10 mi

Pressure: 29.85 "Hg

Humidity: 86%

Dew point: -6 °F

Location of BarrowLocation

Historic Weather in Barrow — Graph

°F

Barrow temperature yesterday

Maximum temperature yesterday: 2 °F (at 11:53 PM)
Minimum temperature yesterday: -2 °F (at 8:53 AM)
Average temperature yesterday: 0 °F

Past Weeks' High & Low Weather Summary

 TemperatureHumidityPressure
High4 °F (Dec 22, 10:53 AM)88% (Dec 22, 8:53 AM)30.31 "Hg (Dec 22, 8:53 AM)
Low-20 °F (Dec 15, 4:53 PM)70% (Dec 13, 6:53 PM)29.66 "Hg (Dec 21, 4:53 PM)
Average-9 °F79%29.95 "Hg
* Reported Dec 7 1:53 PM — Dec 22 1:53 PM, Barrow, Weather by CustomWeather, © 2014

Note: Actual official high and low records may vary slightly from our data, if they occured in-between our weather recording intervals... More about our weather records

Advertising

Barrow weather history for previous 24 hours

 ConditionsComfort  
Time TempWeatherWind HumidityBarometerVisibility
1:53 PM
Dec 22
-1 °FLight snow. Overcast.12 mph86%29.84 "Hg9 mi
12:53 PM0 °FLight snow. Overcast.16 mph87%29.83 "Hg4 mi
11:53 AM4 °FLight snow. Overcast.20 mph88%29.80 "Hg1 mi
10:53 AM4 °FLight snow. Overcast.16 mph88%29.78 "Hg9 mi
9:53 AM2 °FLight snow. Overcast.16 mph83%29.76 "Hg5 mi
8:53 AM2 °FLight snow. Overcast.15 mph88%29.75 "Hg5 mi
7:53 AM3 °FLight snow. Ice fog.13 mph84%29.74 "Hg5 mi
6:53 AM1 °FOvercast.8 mph87%29.74 "Hg8 mi
5:53 AM1 °FMostly cloudy.6 mph87%29.73 "Hg9 mi
4:53 AM0 °FOvercast.6 mph87%29.72 "Hg10 mi
3:53 AM1 °FMostly cloudy.3 mph79%29.71 "Hg10 mi
2:53 AM1 °FOvercast.3 mph87%29.71 "Hg10 mi
1:53 AM2 °FOvercast.No wind83%29.71 "Hg10 mi
12:53 AM1 °FOvercast.3 mph87%29.70 "Hg10 mi
11:53 PM
Dec 21
2 °FLight snow. Overcast.3 mph83%29.69 "Hg9 mi
10:53 PM1 °FLight snow. Overcast.7 mph87%29.68 "Hg9 mi
10:03 PM1 °FLight snow. Overcast.8 mph87%29.67 "Hg9 mi
9:53 PM1 °FLight snow. Overcast.7 mph87%29.68 "Hg9 mi
8:53 PM1 °FLight snow. Overcast.7 mph87%29.67 "Hg9 mi
7:53 PM1 °FLight snow. Overcast.8 mph83%29.67 "Hg9 mi
6:53 PM1 °FLight snow. Overcast.10 mph83%29.67 "Hg9 mi
5:53 PM0 °FLight snow. Overcast.9 mph87%29.67 "Hg9 mi
4:53 PM0 °FLight snow. Overcast.10 mph83%29.66 "Hg9 mi
3:53 PM0 °FLight snow. Overcast.8 mph87%29.67 "Hg9 mi
Weather by CustomWeather, © 2014

See weather overviewHow to use our weather pages